Location: Wiesbaden
(50.0830°N, 8.2500°E)
Time: 06:06:19
(UTC+01:00)

ISS - Pass Details

Date: 23 February 2020
Orbit: 415 x 423 km, 51.6° (Epoch: 27 February)

Event Time Altitude Azimuth Distance (km) Brightness Sun altitude
Exits shadow 05:54:53 - 197° (SSW) 2,046 -0.5 -15.0°
Reaches altitude 10° 05:56:37 10° 181° (S) 1,496 -1.0 -14.7°
Maximum altitude 05:58:51 17° 140° (SE) 1,158 -1.0 -14.3°
Drops below altitude 10° 06:01:05 10° 98° (E) 1,506 0.5 -14.0°
Sets 06:03:42 0° 77° (ENE) 2,376 1.8 -13.6°
